GW3385 Weather Reports


Display with metric or nautical units.
time (UTC)temp
F
wind
direction
speed
MPH
gust
MPH
rain 1hr
in
rain 24hr
in
rain mn
in
humidity
%
barometer
mb
20260508050055 59 198 0.0 4.0 0.00 0.00 0.00 89 1014.8
20260508045556 59 289 1.0 5.0 0.00 0.00 0.00 88 1014.7
20260508045055 59 0 1.0 5.0 0.00 0.00 0.00 89 1014.7
20260508044554 59 0 1.0 4.0 0.00 0.00 0.00 89 1014.6
20260508044056 59 277 1.0 4.0 0.00 0.00 0.00 89 1014.5
20260508043554 59 0 0.0 4.0 0.00 0.00 0.00 88 1014.4
20260508043100 59 213 1.0 4.0 0.00 0.00 0.00 88 1014.4
20260508042554 59 0 0.0 4.0 0.00 0.00 0.00 88 1014.4
20260508042054 59 0 0.0 5.0 0.00 0.00 0.00 88 1014.4
20260508041601 59 279 1.0 5.0 0.00 0.00 0.00 88 1014.2
20260508041055 59 269 2.0 5.0 0.00 0.00 0.00 87 1014.2
20260508040551 59 281 1.0 5.0 0.00 0.00 0.00 87 1014.1
20260508040100 59 273 2.0 7.0 0.00 0.00 0.00 87 1014.0
20260508035555 59 224 1.0 7.0 0.00 0.00 0.00 87 1014.2
20260508035051 59 207 3.0 7.0 0.00 0.00 0.00 87 1014.0
20260508034612 59 140 1.0 6.0 0.00 0.00 0.00 87 1013.9
20260508034056 59 200 3.0 6.0 0.00 0.00 0.00 87 1013.9
20260508033554 59 269 1.0 4.0 0.00 0.00 0.00 88 1013.8
20260508033057 59 275 1.0 4.0 0.00 0.00 0.00 88 1013.7
20260508032555 60 252 1.0 3.0 0.00 0.00 0.00 88 1013.7
20260508032055 60 0 0.0 3.0 0.00 0.00 0.00 88 1013.7
20260508031556 60 286 0.0 4.0 0.00 0.00 0.00 88 1013.6
20260508031055 60 223 0.0 5.0 0.00 0.00 0.00 88 1013.6
20260508030555 60 225 2.0 5.0 0.00 0.00 0.00 88 1013.6
20260508030103 60 0 3.0 8.0 0.00 0.00 0.00 87 1013.4
20260508025555 60 315 3.0 8.0 0.00 0.00 0.00 87 1013.4
20260508025054 60 238 3.0 8.0 0.00 0.00 0.00 87 1013.4
20260508024558 60 208 4.0 8.0 0.00 0.00 0.00 86 1013.4
20260508024055 60 178 3.0 9.0 0.00 0.00 0.00 86 1013.4
20260508023555 60 213 3.0 9.0 0.00 0.00 0.00 85 1013.3
20260508023059 61 204 5.0 9.0 0.00 0.00 0.00 84 1013.4
20260508022555 61 226 2.0 8.0 0.00 0.00 0.00 84 1013.3
20260508022055 61 261 2.0 7.0 0.00 0.00 0.00 84 1013.2
20260508021601 62 203 3.0 7.0 0.00 0.00 0.00 83 1013.1
20260508021054 62 234 3.0 7.0 0.00 0.00 0.00 83 1013.2
20260508020551 62 198 2.0 10.0 0.00 0.00 0.00 82 1013.1
20260508015556 62 0 3.0 8.0 0.00 0.00 0.00 82 1012.9
20260508015054 62 229 3.0 8.0 0.00 0.00 0.00 82 1012.9
20260508014557 62 227 4.0 10.0 0.00 0.00 0.00 82 1012.9
20260508014051 62 221 4.0 10.0 0.00 0.00 0.00 83 1012.9
20260508013551 62 188 4.0 10.0 0.00 0.00 0.00 83 1012.9
20260508013100 62 281 7.0 11.0 0.00 0.00 0.00 82 1012.8
20260508012555 63 244 7.0 11.0 0.00 0.00 0.00 81 1012.9
20260508012054 63 283 4.0 10.0 0.00 0.00 0.00 81 1012.8
20260508011558 63 179 4.0 10.0 0.00 0.00 0.00 81 1012.9
20260508011054 63 213 6.0 10.0 0.00 0.00 0.00 80 1013.0
20260508010554 64 267 5.0 10.0 0.00 0.00 0.00 78 1012.9
20260508010056 64 254 5.0 11.0 0.00 0.00 0.00 78 1012.9
20260508005558 64 264 3.0 11.0 0.00 0.00 0.00 77 1012.9
20260508005057 65 277 7.0 14.0 0.00 0.00 0.00 76 1013.0
20260508004556 65 234 6.0 14.0 0.00 0.00 0.00 74 1012.9
20260508004059 65 123 4.0 10.0 0.00 0.00 0.00 74 1012.9
20260508003551 66 186 5.0 10.0 0.00 0.00 0.00 73 1012.9
20260508003055 66 135 4.0 11.0 0.00 0.00 0.00 73 1012.8
20260508002555 65 191 5.0 13.0 0.00 0.00 0.00 73 1012.8
20260508002055 66 180 6.0 13.0 0.00 0.00 0.00 72 1012.8
20260508001612 66 164 5.0 10.0 0.00 0.00 0.00 72 1012.8
20260508001054 66 304 4.0 13.0 0.00 0.00 0.00 73 1012.8
20260508000556 66 279 6.0 13.0 0.00 0.00 0.00 72 1012.9
20260508000053 67 277 4.0 11.0 0.00 0.00 0.00 72 1012.9
20260507235557 67 212 3.0 10.0 0.00 0.00 0.00 73 1012.9
20260507235054 66 234 5.0 12.0 0.00 0.00 0.00 73 1012.9
20260507234557 65 196 4.0 13.0 0.00 0.00 0.00 75 1012.9
20260507234106 65 260 8.0 13.0 0.00 0.00 0.00 74 1013.0
20260507233555 66 274 7.0 12.0 0.00 0.00 0.00 74 1013.1
20260507233054 66 240 7.0 12.0 0.00 0.00 0.00 73 1013.1
20260507232555 66 267 5.0 13.0 0.00 0.00 0.00 74 1013.0
20260507232054 67 311 6.0 13.0 0.00 0.00 0.00 74 1013.1
20260507231556 67 196 5.0 10.0 0.00 0.00 0.00 74 1013.1
20260507231055 67 182 3.0 10.0 0.00 0.00 0.00 75 1013.1
20260507230555 66 312 3.0 10.0 0.00 0.00 0.00 76 1013.1
20260507230054 66 279 5.0 14.0 0.00 0.00 0.00 76 1013.3
20260507225555 66 288 6.0 14.0 0.00 0.00 0.00 77 1013.3
20260507225055 66 161 7.0 11.0 0.00 0.00 0.00 75 1013.2
20260507224558 66 166 6.0 12.0 0.00 0.00 0.00 76 1013.3
20260507224054 67 257 5.0 12.0 0.00 0.00 0.00 76 1013.3
20260507223554 67 218 6.0 13.0 0.00 0.00 0.00 76 1013.4
20260507223053 67 207 5.0 13.0 0.00 0.00 0.00 76 1013.4
20260507222553 67 281 5.0 16.0 0.00 0.00 0.00 74 1013.4
20260507222054 67 267 5.0 16.0 0.00 0.00 0.00 75 1013.4
20260507221554 67 183 6.0 14.0 0.00 0.00 0.00 73 1013.5
20260507221055 67 267 6.0 14.0 0.00 0.00 0.00 75 1013.5
20260507220556 67 265 6.0 17.0 0.00 0.00 0.00 74 1013.5
20260507220054 66 263 9.0 17.0 0.00 0.00 0.00 75 1013.6
20260507215555 66 265 6.0 13.0 0.00 0.00 0.00 74 1013.6
20260507215055 67 269 7.0 13.0 0.00 0.00 0.00 73 1013.7
20260507214600 67 261 9.0 14.0 0.00 0.00 0.00 72 1013.7
20260507214054 67 253 5.0 14.0 0.00 0.00 0.00 73 1013.8
20260507213556 67 271 7.0 15.0 0.00 0.00 0.00 73 1013.8
20260507213056 66 265 10.0 15.0 0.00 0.00 0.00 74 1013.9
20260507212553 67 220 5.0 12.0 0.00 0.00 0.00 74 1013.9
20260507212051 67 225 5.0 12.0 0.00 0.00 0.00 74 1013.9
20260507211555 67 291 7.0 12.0 0.00 0.00 0.00 73 1013.9
20260507211054 67 265 7.0 12.0 0.00 0.00 0.00 74 1014.0
20260507210558 67 264 5.0 12.0 0.00 0.00 0.00 74 1014.0
20260507210055 67 215 6.0 12.0 0.00 0.00 0.00 74 1014.1
20260507205555 67 171 6.0 13.0 0.00 0.00 0.00 72 1014.2
20260507205055 67 221 7.0 16.0 0.00 0.00 0.00 73 1014.2
20260507204558 67 192 8.0 16.0 0.00 0.00 0.00 73 1014.2
20260507204054 68 132 9.0 13.0 0.00 0.00 0.00 72 1014.1
20260507203555 68 208 4.0 14.0 0.00 0.00 0.00 73 1014.2
20260507203059 68 207 5.0 14.0 0.00 0.00 0.00 72 1014.3
20260507202557 68 219 6.0 13.0 0.00 0.00 0.00 73 1014.3
20260507202054 68 204 7.0 14.0 0.00 0.00 0.00 73 1014.3
20260507201559 67 177 5.0 14.0 0.00 0.00 0.00 73 1014.4
20260507201051 67 190 6.0 12.0 0.00 0.00 0.00 74 1014.4
20260507200555 67 266 6.0 11.0 0.00 0.00 0.00 72 1014.4
20260507200109 67 182 5.0 11.0 0.00 0.00 0.00 72 1014.6
20260507195554 67 282 6.0 11.0 0.00 0.00 0.00 73 1014.7
20260507195051 67 285 8.0 11.0 0.00 0.00 0.00 72 1014.6
20260507194555 67 304 4.0 10.0 0.00 0.00 0.00 73 1014.7
20260507194054 67 269 4.0 13.0 0.00 0.00 0.00 73 1014.8
20260507193554 67 196 6.0 13.0 0.00 0.00 0.00 73 1014.8
20260507193056 67 192 6.0 13.0 0.00 0.00 0.00 72 1014.8
20260507192554 67 184 4.0 12.0 0.00 0.00 0.00 72 1014.9
20260507192059 67 209 7.0 12.0 0.00 0.00 0.00 72 1014.9
20260507191558 67 323 4.0 11.0 0.00 0.00 0.00 73 1015.0
20260507191055 67 180 6.0 11.0 0.00 0.00 0.00 73 1015.0
20260507190555 67 211 4.0 11.0 0.00 0.00 0.00 73 1015.0
20260507190057 67 168 4.0 10.0 0.00 0.00 0.00 73 1015.0
20260507185554 67 192 5.0 10.0 0.00 0.00 0.00 72 1015.0
20260507185051 67 267 3.0 9.0 0.00 0.00 0.00 73 1015.1
20260507184603 67 183 4.0 9.0 0.00 0.00 0.00 73 1015.1
20260507184054 66 224 4.0 10.0 0.00 0.00 0.00 74 1015.1
20260507183554 66 179 5.0 10.0 0.00 0.00 0.00 74 1015.1
20260507183054 66 189 4.0 10.0 0.00 0.00 0.00 73 1015.1
20260507182556 66 214 4.0 8.0 0.00 0.00 0.00 73 1015.2
20260507182055 66 257 4.0 10.0 0.00 0.00 0.00 73 1015.2
20260507181602 66 207 3.0 10.0 0.00 0.00 0.00 73 1015.2
20260507181054 66 257 4.0 9.0 0.00 0.00 0.00 74 1015.2
20260507180555 66 195 5.0 9.0 0.00 0.00 0.00 74 1015.1
20260507180053 66 300 4.0 9.0 0.00 0.00 0.00 74 1015.0
20260507175558 66 271 4.0 14.0 0.00 0.00 0.00 74 1015.0
20260507175054 66 178 4.0 14.0 0.00 0.00 0.00 75 1015.0
20260507174559 66 176 6.0 11.0 0.00 0.00 0.00 74 1015.1
20260507174055 66 213 3.0 10.0 0.00 0.00 0.00 74 1015.0
20260507173554 66 260 5.0 9.0 0.00 0.00 0.00 74 1015.1
20260507173053 66 250 4.0 9.0 0.00 0.00 0.00 73 1015.2
20260507172558 66 288 3.0 7.0 0.00 0.00 0.00 73 1015.2
20260507172055 66 245 4.0 7.0 0.00 0.00 0.00 74 1015.1
20260507171606 66 0 2.0 6.0 0.00 0.00 0.00 74 1015.2
20260507171055 66 221 1.0 8.0 0.00 0.00 0.00 77 1015.1
20260507170555 65 277 2.0 8.0 0.00 0.00 0.00 77 1015.3
20260507170057 65 159 2.0 7.0 0.00 0.00 0.00 78 1015.2
20260507165554 64 183 2.0 9.0 0.00 0.00 0.00 78 1015.3
20260507165055 64 197 2.0 9.0 0.00 0.00 0.00 78 1015.3
20260507164558 64 238 4.0 9.0 0.00 0.00 0.00 79 1015.4
20260507164058 64 254 3.0 8.0 0.00 0.00 0.00 79 1015.4
20260507163554 64 177 2.0 9.0 0.00 0.00 0.00 80 1015.4
20260507163101 63 196 2.0 9.0 0.00 0.00 0.00 80 1015.5
20260507162554 63 244 2.0 7.0 0.00 0.00 0.00 80 1015.4
20260507162054 63 173 3.0 8.0 0.00 0.00 0.00 80 1015.4
20260507161604 63 172 3.0 8.0 0.00 0.00 0.00 80 1015.4
20260507161055 63 234 3.0 6.0 0.00 0.00 0.00 80 1015.5
20260507160555 63 192 2.0 6.0 0.00 0.00 0.00 79 1015.4
20260507160056 63 236 2.0 6.0 0.00 0.00 0.00 79 1015.4
20260507155554 63 268 2.0 6.0 0.00 0.00 0.00 80 1015.5
20260507155055 63 0 1.0 5.0 0.00 0.00 0.00 80 1015.6
20260507154604 63 352 3.0 5.0 0.00 0.00 0.00 80 1015.6
20260507154052 63 261 1.0 6.0 0.00 0.00 0.00 80 1015.6
20260507153552 63 195 1.0 6.0 0.00 0.00 0.00 80 1015.6
20260507153101 63 249 2.0 6.0 0.00 0.00 0.00 79 1015.5
20260507152552 63 231 1.0 4.0 0.00 0.00 0.00 80 1015.6
20260507152052 63 0 1.0 4.0 0.00 0.00 0.00 80 1015.6
20260507151554 63 182 1.0 4.0 0.00 0.00 0.00 80 1015.5
20260507151052 63 0 1.0 4.0 0.00 0.00 0.00 80 1015.6
20260507150553 63 255 0.0 3.0 0.00 0.00 0.00 81 1015.6
20260507150054 62 0 0.0 2.0 0.00 0.00 0.00 81 1015.6
20260507145553 61 0 0.0 1.0 0.00 0.00 0.00 82 1015.6
20260507145054 61 0 0.0 1.0 0.00 0.00 0.00 82 1015.5
20260507144557 60 0 0.0 2.0 0.00 0.00 0.00 82 1015.5
20260507144055 60 0 0.0 2.0 0.00 0.00 0.00 83 1015.5
20260507143552 60 0 0.0 0.0 0.00 0.00 0.00 84 1015.5
20260507143055 59 0 0.0 0.0 0.00 0.00 0.00 86 1015.5
20260507142553 59 0 0.0 0.0 0.00 0.00 0.00 86 1015.4
20260507142053 58 0 0.0 0.0 0.00 0.00 0.00 86 1015.4
20260507141558 58 0 0.0 1.0 0.00 0.00 0.00 87 1015.4
20260507141052 58 0 0.0 1.0 0.00 0.00 0.00 88 1015.3
20260507140556 58 0 0.0 0.0 0.00 0.00 0.00 89 1015.2
20260507140053 57 0 0.0 1.0 0.00 0.00 0.00 90 1015.2
20260507135556 56 0 0.0 1.0 0.00 0.00 0.00 90 1015.2
20260507135053 56 0 0.0 2.0 0.00 0.00 0.00 90 1015.2
20260507134557 55 0 0.0 2.0 0.00 0.00 0.00 90 1015.0
20260507134052 55 0 0.0 2.0 0.00 0.00 0.00 90 1015.0
20260507133553 55 0 0.0 2.0 0.00 0.00 0.00 90 1015.0
20260507133057 55 17 0.0 2.0 0.00 0.00 0.00 90 1014.9
20260507132552 55 0 0.0 2.0 0.00 0.00 0.00 89 1015.0
20260507132055 55 0 0.0 2.0 0.00 0.00 0.00 89 1015.0
20260507131603 55 5 0.0 2.0 0.00 0.00 0.00 89 1015.0
20260507131052 55 5 0.0 2.0 0.00 0.00 0.00 89 1014.9
20260507130552 54 0 0.0 1.0 0.00 0.00 0.00 89 1014.9
20260507130107 55 0 0.0 1.0 0.00 0.00 0.00 89 1014.9
20260507125555 55 0 0.0 1.0 0.00 0.00 0.00 89 1014.8
20260507125052 55 0 0.0 1.0 0.00 0.00 0.00 89 1014.8
20260507124556 55 0 0.0 0.0 0.00 0.00 0.00 88 1014.8
20260507124055 55 0 0.0 0.0 0.00 0.00 0.00 89 1014.7
20260507123555 55 0 0.0 1.0 0.00 0.00 0.00 88 1014.7
20260507123055 55 0 0.0 1.0 0.00 0.00 0.00 88 1014.7
20260507122554 55 0 0.0 2.0 0.00 0.00 0.00 89 1014.6
20260507122055 55 0 0.0 2.0 0.00 0.00 0.00 89 1014.6
20260507121604 55 5 0.0 2.0 0.00 0.00 0.00 89 1014.6
20260507121055 55 5 0.0 0.0 0.00 0.00 0.00 89 1014.6
20260507120557 55 0 0.0 3.0 0.00 0.00 0.00 89 1014.7
20260507120057 55 0 0.0 3.0 0.00 0.00 0.00 89 1014.7
20260507115555 55 0 1.0 2.0 0.00 0.00 0.00 89 1014.7
20260507115054 55 0 0.0 0.0 0.00 0.00 0.00 89 1014.7
20260507114613 55 0 0.0 0.0 0.00 0.00 0.00 89 1014.7
20260507114054 55 0 0.0 0.0 0.00 0.00 0.00 89 1014.7
20260507113555 55 0 0.0 0.0 0.00 0.00 0.00 89 1014.7
20260507113055 55 0 0.0 0.0 0.00 0.00 0.00 88 1014.8
20260507112557 55 0 0.0 0.0 0.00 0.00 0.00 89 1014.8
20260507112057 55 0 0.0 0.0 0.00 0.00 0.00 88 1014.7
20260507111552 55 0 0.0 0.0 0.00 0.00 0.00 88 1014.9
20260507111054 55 0 0.0 0.0 0.00 0.00 0.00 88 1014.9
20260507110555 55 0 0.0 0.0 0.00 0.00 0.00 88 1014.9
20260507105555 56 0 0.0 0.0 0.00 0.00 0.00 88 1014.9
20260507105054 56 0 0.0 0.0 0.00 0.00 0.00 89 1014.9
20260507104554 56 0 0.0 0.0 0.00 0.00 0.00 90 1014.9
20260507104055 56 0 0.0 0.0 0.00 0.00 0.00 89 1015.0
20260507103555 55 0 0.0 0.0 0.00 0.00 0.00 89 1015.1
20260507103054 55 0 0.0 0.0 0.00 0.00 0.00 89 1015.0
20260507102554 55 0 0.0 0.0 0.00 0.00 0.00 88 1015.0
20260507102054 55 0 0.0 1.0 0.00 0.00 0.00 89 1015.1
20260507101603 55 0 0.0 1.0 0.00 0.00 0.00 89 1015.1
20260507101055 55 0 0.0 3.0 0.00 0.00 0.00 88 1015.1
20260507100555 55 0 0.0 3.0 0.00 0.00 0.00 88 1015.1
20260507100055 55 44 0.0 0.0 0.00 0.00 0.00 88 1015.3
20260507095555 56 0 0.0 0.0 0.00 0.00 0.00 88 1015.1
20260507095056 56 0 0.0 0.0 0.00 0.00 0.00 88 1015.2
20260507094554 56 0 0.0 0.0 0.00 0.00 0.00 88 1015.3
20260507094056 56 0 0.0 0.0 0.00 0.00 0.00 88 1015.2
20260507093554 56 0 0.0 0.0 0.00 0.00 0.00 88 1015.3
20260507093057 57 0 0.0 0.0 0.00 0.00 0.00 89 1015.4
20260507092558 56 0 0.0 0.0 0.00 0.00 0.00 89 1015.3
20260507092054 56 0 0.0 0.0 0.00 0.00 0.00 89 1015.3
20260507091558 57 0 0.0 0.0 0.00 0.00 0.00 89 1015.5
20260507091054 57 0 0.0 1.0 0.00 0.00 0.00 89 1015.4
20260507090556 57 0 0.0 1.0 0.00 0.00 0.00 90 1015.5
20260507090057 57 0 0.0 2.0 0.00 0.00 0.00 89 1015.5
20260507085555 57 0 0.0 2.0 0.00 0.00 0.00 89 1015.6
20260507085055 57 0 0.0 2.0 0.00 0.00 0.00 89 1015.6
20260507084555 56 0 0.0 2.0 0.00 0.00 0.00 89 1015.7
20260507084059 56 0 0.0 3.0 0.00 0.00 0.00 89 1015.7
20260507083555 56 0 1.0 3.0 0.00 0.00 0.00 89 1015.7
20260507083055 56 49 0.0 3.0 0.00 0.00 0.00 88 1015.8
20260507082554 56 0 0.0 3.0 0.00 0.00 0.00 88 1015.8
20260507082058 56 0 0.0 2.0 0.00 0.00 0.00 88 1015.9
20260507081557 56 0 0.0 2.0 0.00 0.00 0.00 88 1016.0
20260507081054 56 0 0.0 3.0 0.00 0.00 0.00 89 1016.0
20260507080556 56 0 0.0 3.0 0.00 0.00 0.00 89 1015.9
20260507075554 57 0 1.0 3.0 0.00 0.00 0.00 90 1015.9
20260507075055 57 57 0.0 3.0 0.00 0.00 0.00 90 1015.9
20260507074609 56 0 0.0 4.0 0.00 0.00 0.00 90 1015.9
20260507074055 56 360 1.0 4.0 0.00 0.00 0.00 90 1015.9
20260507073555 57 338 1.0 3.0 0.00 0.00 0.00 90 1015.9
20260507073053 57 0 0.0 3.0 0.00 0.00 0.00 90 1016.0
20260507072555 57 0 0.0 3.0 0.00 0.00 0.00 90 1016.1
20260507072056 57 0 1.0 3.0 0.00 0.00 0.00 90 1016.2
20260507071554 57 0 0.0 3.0 0.00 0.00 0.00 90 1016.2
20260507071056 57 0 0.0 3.0 0.00 0.00 0.00 90 1016.2
20260507070555 57 0 1.0 3.0 0.00 0.00 0.00 90 1016.1
20260507070055 57 0 0.0 0.0 0.00 0.00 0.00 90 1016.2
20260507065555 57 0 0.0 0.0 0.00 0.00 0.00 90 1016.1
20260507065054 57 0 0.0 0.0 0.00 0.00 0.00 90 1016.2
20260507064554 57 0 0.0 0.0 0.00 0.00 0.00 90 1016.2
20260507064054 57 0 0.0 0.0 0.00 0.00 0.00 90 1016.3
20260507063555 57 0 0.0 0.0 0.00 0.00 0.00 90 1016.3
20260507063054 57 0 0.0 0.0 0.00 0.00 0.00 90 1016.2
20260507062555 57 0 0.0 1.0 0.00 0.00 0.00 90 1016.2
20260507062055 57 0 0.0 2.0 0.00 0.00 0.00 90 1016.2
20260507061552 57 0 0.0 3.0 0.00 0.00 0.00 90 1016.1
20260507061054 57 67 1.0 3.0 0.00 0.00 0.00 90 1016.1
20260507060554 58 63 1.0 3.0 0.00 0.00 0.00 89 1016.1
20260507060054 58 74 0.0 2.0 0.00 0.00 0.00 89 1016.2
20260507055555 58 92 0.0 3.0 0.00 0.00 0.00 89 1016.2
20260507055054 58 92 0.0 3.0 0.00 0.00 0.00 89 1016.3
20260507054636 58 92 2.0 4.0 0.00 0.00 0.00 89 1016.1
20260507054054 58 0 1.0 4.0 0.00 0.00 0.00 89 1016.1
20260507053554 58 86 0.0 3.0 0.00 0.00 0.00 89 1016.2
20260507053054 58 0 0.0 3.0 0.00 0.00 0.00 88 1016.1
20260507052555 58 92 1.0 3.0 0.00 0.00 0.00 88 1016.1
20260507052055 58 34 0.0 3.0 0.00 0.00 0.00 88 1016.1
20260507051553 58 34 0.0 3.0 0.00 0.00 0.00 88 1016.1
20260507051055 58 34 1.0 3.0 0.00 0.00 0.00 87 1016.1
20260507050555 58 0 0.0 3.0 0.00 0.00 0.00 87 1016.1